Find Starlink 32106

NORAD ID: 59690 Int'l Des: 2024-086 Owner: SPXS Country: US Constellation: starlink operational
LEOCIRCULAR

当前视图

正在加载3D地球...

About Starlink 32106

Starlink 32106 (NORAD 59690) is a starlink constellation satellite (v2 mini) launched May 8, 2024 by SPXS of US. It operates in LEO, CIRCULAR orbit with a mass of 730.00 kg.

即将过境

Passes for default location (London). Set your location on the main map for personalized predictions.

高度历史

Loading altitude history...

两行轨道根数

1 59690U 24086J 26262.71097715 .00000138 00000-0 14560-4 0 9996
2 59690 43.0039 36.5147 0001583 273.2131 86.8540 15.27580404133871
Epoch: Sep 19, 2026 • Age: 25 hours

当前状态

高度 491.4 km
远地点 / 近地点 N/A
速度 7.62 km/s
星下点 -33.20°S, 77.66°E
发射日期 May 8, 2024
运行时间 2.3 years
类型 internet

技术详情

分类 Payload
质量 730.00 kg
干质量 700.00 kg
长度 0.30 m
跨度 29.00 m
形状 ? Box + pan
制造商 SPXS
平台类型 Starlink V2M
阶段状态 In Orbit
所有者/国家 SPXS/US

Most Searched